• In Uzbekistan
  • List of Countries
  • For 7 days
  • Water Temperature
  • Satellite Maps
  • Weather Map
  • Weather Widgets
  • user-avatar
    Login

    Hourly Weather Jitotol

    Today, 20 February, Tuesday

    Time Temperature Precipitation Wind Pressure Humidity
    00:00 +12°C° 0 mm 1 mps 610 mmHg 79%
    01:00 +12°C° 0 mm 1 mps 610 mmHg 79%
    02:00 +12°C° 0 mm 1 mps 610 mmHg 80%
    03:00 +11°C° 0 mm 1 mps 609 mmHg 80%
    04:00 +11°C° 0 mm 1 mps 609 mmHg 80%
    05:00 +11°C° 0 mm 1 mps 609 mmHg 80%
    06:00 +11°C° 0 mm 1 mps 610 mmHg 80%
    07:00 +13°C° 0 mm 1 mps 611 mmHg 72%
    08:00 +15°C° 0 mm 1 mps 612 mmHg 64%
    09:00 +19°C° 0 mm 1 mps 613 mmHg 56%
    10:00 +20°C° 0 mm 1 mps 614 mmHg 52%
    11:00 +22°C° 0 mm 1 mps 614 mmHg 47%
    12:00 +24°C° 0 mm 1 mps 615 mmHg 43%
    13:00 +23°C° 0.1 mm 1 mps 614 mmHg 47%
    14:00 +23°C° 0.1 mm 1 mps 613 mmHg 51%
    15:00 +22°C° 0.1 mm 1 mps 613 mmHg 55%
    16:00 +21°C° 0.3 mm 1 mps 612 mmHg 61%
    17:00 +19°C° 0.3 mm 1 mps 611 mmHg 67%
    18:00 +16°C° 0.3 mm 1 mps 611 mmHg 73%
    19:00 +15°C° 0 mm 1 mps 611 mmHg 75%
    20:00 +14°C° 0 mm 1 mps 611 mmHg 76%
    21:00 +13°C° 0 mm 1 mps 611 mmHg 78%
    22:00 +13°C° 0 mm 1 mps 611 mmHg 78%
    23:00 +13°C° 0 mm 1 mps 611 mmHg 77%

    Tomorrow, 21 February, Wednesday

    Time Temperature Precipitation Wind Pressure Humidity
    00:00 +12°C° 0 mm 1 mps 611 mmHg 77%
    01:00 +12°C° 0 mm 1 mps 611 mmHg 77%
    02:00 +12°C° 0 mm 1 mps 611 mmHg 77%
    03:00 +12°C° 0 mm 1 mps 610 mmHg 77%
    04:00 +11°C° 0 mm 1 mps 610 mmHg 76%
    05:00 +11°C° 0 mm 1 mps 610 mmHg 76%
    06:00 +11°C° 0 mm 1 mps 610 mmHg 75%
    07:00 +14°C° 0 mm 1 mps 612 mmHg 68%
    08:00 +16°C° 0 mm 1 mps 613 mmHg 62%
    09:00 +17°C° 0 mm 0 mps 614 mmHg 55%
    10:00 +21°C° 0 mm 1 mps 615 mmHg 51%
    11:00 +23°C° 0 mm 1 mps 615 mmHg 47%
    12:00 +24°C° 0 mm 1 mps 616 mmHg 44%
    13:00 +23°C° 0.1 mm 1 mps 615 mmHg 48%
    14:00 +23°C° 0.1 mm 1 mps 614 mmHg 52%
    15:00 +22°C° 0.1 mm 1 mps 613 mmHg 56%
    16:00 +20°C° 0.3 mm 1 mps 613 mmHg 62%
    17:00 +19°C° 0.3 mm 1 mps 612 mmHg 69%
    18:00 +16°C° 0.3 mm 1 mps 612 mmHg 75%
    19:00 +15°C° 0 mm 1 mps 612 mmHg 77%
    20:00 +14°C° 0 mm 1 mps 612 mmHg 79%
    21:00 +13°C° 0 mm 1 mps 612 mmHg 82%
    22:00 +13°C° 0 mm 1 mps 612 mmHg 80%
    23:00 +12°C° 0 mm 1 mps 612 mmHg 78%

    Day after tomorrow, 22 February, Thursday

    Time Temperature Precipitation Wind Pressure Humidity
    00:00 +12°C° 0 mm 1 mps 612 mmHg 76%
    01:00 +12°C° 0 mm 1 mps 611 mmHg 76%
    02:00 +11°C° 0 mm 1 mps 611 mmHg 76%
    03:00 +11°C° 0 mm 1 mps 611 mmHg 75%
    04:00 +11°C° 0 mm 1 mps 611 mmHg 75%
    05:00 +11°C° 0 mm 1 mps 611 mmHg 74%
    06:00 +10°C° 0 mm 1 mps 611 mmHg 73%
    07:00 +13°C° 0 mm 1 mps 612 mmHg 67%
    08:00 +15°C° 0 mm 1 mps 614 mmHg 60%
    09:00 +17°C° 0 mm 0 mps 615 mmHg 54%
    10:00 +20°C° 0 mm 1 mps 615 mmHg 50%
    11:00 +22°C° 0 mm 1 mps 616 mmHg 47%
    12:00 +24°C° 0 mm 1 mps 616 mmHg 43%
    13:00 +23°C° 0 mm 2 mps 615 mmHg 47%
    14:00 +23°C° 0 mm 2 mps 614 mmHg 50%
    15:00 +21°C° 0 mm 2 mps 614 mmHg 54%
    16:00 +20°C° 0.2 mm 2 mps 613 mmHg 61%
    17:00 +19°C° 0.2 mm 1 mps 613 mmHg 69%
    18:00 +16°C° 0.2 mm 1 mps 612 mmHg 76%
    19:00 +15°C° 0 mm 1 mps 612 mmHg 79%
    20:00 +14°C° 0 mm 1 mps 612 mmHg 82%
    21:00 +13°C° 0 mm 1 mps 612 mmHg 85%
    22:00 +12°C° 0 mm 1 mps 612 mmHg 83%
    23:00 +12°C° 0 mm 1 mps 612 mmHg 81%

    23 February, Friday

    Time Temperature Precipitation Wind Pressure Humidity
    00:00 +11°C° 0 mm 1 mps 612 mmHg 80%
    01:00 +11°C° 0 mm 1 mps 611 mmHg 78%
    02:00 +11°C° 0 mm 1 mps 611 mmHg 77%
    03:00 +11°C° 0 mm 1 mps 611 mmHg 76%
    04:00 +11°C° 0 mm 1 mps 611 mmHg 76%
    05:00 +10°C° 0 mm 1 mps 611 mmHg 76%
    06:00 +10°C° 0 mm 1 mps 611 mmHg 76%
    07:00 +13°C° 0 mm 1 mps 612 mmHg 70%
    08:00 +15°C° 0 mm 1 mps 613 mmHg 64%
    09:00 +18°C° 0 mm 1 mps 615 mmHg 58%
    10:00 +20°C° 0 mm 1 mps 615 mmHg 53%
    11:00 +22°C° 0 mm 1 mps 616 mmHg 49%
    12:00 +24°C° 0 mm 1 mps 616 mmHg 44%
    13:00 +23°C° 0 mm 1 mps 615 mmHg 45%
    14:00 +23°C° 0 mm 1 mps 614 mmHg 46%
    15:00 +23°C° 0 mm 2 mps 613 mmHg 46%
    16:00 +21°C° 0 mm 1 mps 613 mmHg 55%
    17:00 +20°C° 0 mm 1 mps 612 mmHg 63%
    18:00 +18°C° 0 mm 1 mps 611 mmHg 71%
    19:00 +16°C° 0 mm 1 mps 611 mmHg 75%
    20:00 +14°C° 0 mm 1 mps 611 mmHg 80%
    21:00 +13°C° 0 mm 1 mps 611 mmHg 84%
    22:00 +13°C° 0 mm 1 mps 611 mmHg 82%
    23:00 +12°C° 0 mm 1 mps 611 mmHg 81%

    24 February, Saturday

    Time Temperature Precipitation Wind Pressure Humidity
    00:00 +12°C° 0 mm 1 mps 611 mmHg 80%
    01:00 +12°C° 0 mm 1 mps 610 mmHg 79%
    02:00 +11°C° 0 mm 1 mps 610 mmHg 78%
    03:00 +11°C° 0 mm 1 mps 609 mmHg 77%
    04:00 +11°C° 0 mm 1 mps 609 mmHg 76%
    05:00 +11°C° 0 mm 1 mps 609 mmHg 75%
    06:00 +11°C° 0 mm 1 mps 609 mmHg 74%
    07:00 +13°C° 0 mm 1 mps 611 mmHg 66%
    08:00 +15°C° 0 mm 1 mps 612 mmHg 58%
    09:00 +19°C° 0 mm 1 mps 613 mmHg 51%
    10:00 +21°C° 0 mm 1 mps 614 mmHg 47%
    11:00 +22°C° 0 mm 1 mps 614 mmHg 43%
    12:00 +24°C° 0 mm 1 mps 614 mmHg 38%
    13:00 +24°C° 0 mm 1 mps 613 mmHg 39%
    14:00 +24°C° 0 mm 1 mps 613 mmHg 41%
    15:00 +24°C° 0 mm 1 mps 612 mmHg 42%
    16:00 +22°C° 0 mm 1 mps 611 mmHg 51%
    17:00 +20°C° 0 mm 1 mps 611 mmHg 60%
    18:00 +18°C° 0 mm 1 mps 610 mmHg 69%
    19:00 +16°C° 0 mm 1 mps 610 mmHg 72%
    20:00 +15°C° 0 mm 1 mps 610 mmHg 76%
    21:00 +14°C° 0 mm 1 mps 610 mmHg 79%
    22:00 +13°C° 0 mm 1 mps 610 mmHg 79%
    23:00 +13°C° 0 mm 1 mps 610 mmHg 79%

    25 February, Sunday

    Time Temperature Precipitation Wind Pressure Humidity
    00:00 +13°C° 0 mm 1 mps 610 mmHg 79%
    01:00 +13°C° 0 mm 1 mps 609 mmHg 81%
    02:00 +12°C° 0 mm 1 mps 609 mmHg 82%
    03:00 +12°C° 0 mm 1 mps 609 mmHg 83%
    04:00 +12°C° 0 mm 1 mps 609 mmHg 84%
    05:00 +12°C° 0 mm 1 mps 609 mmHg 84%
    06:00 +11°C° 0 mm 1 mps 609 mmHg 85%
    07:00 +14°C° 0 mm 1 mps 611 mmHg 76%
    08:00 +16°C° 0 mm 1 mps 612 mmHg 66%
    09:00 +19°C° 0 mm 1 mps 613 mmHg 57%
    10:00 +21°C° 0 mm 1 mps 614 mmHg 52%
    11:00 +23°C° 0 mm 1 mps 614 mmHg 48%
    12:00 +25°C° 0 mm 1 mps 614 mmHg 43%
    13:00 +24°C° 0.1 mm 1 mps 614 mmHg 45%
    14:00 +23°C° 0.1 mm 1 mps 613 mmHg 48%
    15:00 +23°C° 0.1 mm 1 mps 612 mmHg 50%
    16:00 +21°C° 0.4 mm 1 mps 612 mmHg 59%
    17:00 +19°C° 0.4 mm 1 mps 611 mmHg 67%
    18:00 +16°C° 0.4 mm 1 mps 611 mmHg 76%
    19:00 +15°C° 0.2 mm 1 mps 611 mmHg 78%
    20:00 +14°C° 0.2 mm 1 mps 611 mmHg 81%
    21:00 +13°C° 0.2 mm 1 mps 611 mmHg 84%
    22:00 +13°C° 0.1 mm 1 mps 611 mmHg 84%
    23:00 +12°C° 0.1 mm 1 mps 611 mmHg 84%
    Show more